Regional Weather Roundup
Issued by NWS Albany, NY

Home | Current Version | Previous Version | Text Only | Print | Product List | Glossary On
Versions: 1 2 3 4 5 6 7 8 9 10 11 12 13 14 15 16 17 18 19 20 21 22 23 24 25 26 27 28 29 30 31 32 33 34 35 36 37 38 39 40 41 42 43 44 45 46 47 48 49 50
000
ASUS41 KALY 220410
RWRALY

NEW YORK STATE HOURLY WEATHER ROUNDUP
NATIONAL WEATHER SERVICE ALBANY NY
1200 AM EDT FRI AUG 22 2014

NOTE: "FAIR" INDICATES FEW OR NO CLOUDS BELOW 12,000 FEET WITH NO
SIGNIFICANT WEATHER AND/OR NO OBSTRUCTIONS TO VISIBILITY.

NYZ032-033-038>043-046>054-057>066-NYZ062>081-220500-
EAST


CITY           SKY/WX    TMP DP  RH WIND       PRES   REMARKS
ALBANY         LGT RAIN  68  63  84 S9        30.01F
GLENS FALLS    CLOUDY    64  61  90 NE6       30.03F
POUGHKEEPSIE   CLOUDY    68  65  90 S3        30.03F
MONTGOMERY     RAIN      65  62  90 SW5       30.04F
WHITE PLAINS   DRIZZLE   68  66  93 SE10      30.05F
ISLIP          CLOUDY    71  63  75 SE7       30.03S
NEW YORK CITY  LGT RAIN  72  67  84 E7        30.04R
CENTRAL PARK   HVY RAIN  69  66  90 W7        30.09R FOG
$$

NYZ005>009-017-018-044>046-055-056-220500-
CENTRAL


CITY           SKY/WX    TMP DP  RH WIND       PRES   REMARKS
FULTON         CLOUDY    67  65  93 CALM      29.97S
SYRACUSE       CLOUDY    68  66  93 CALM      29.97F
ROME           CLOUDY    67  65  93 E5        29.98F
ELMIRA         CLEAR     65  65 100 CALM      30.00R
BINGHAMTON     PTCLDY    63  62  97 S3        30.02S
MONTICELLO     CLOUDY    63  61  94 S5        30.07R
$$

NYZ026>034-041>043-220500-
NORTH


CITY           SKY/WX    TMP DP  RH WIND       PRES   REMARKS
WATERTOWN      CLOUDY    67  62  84 CALM      29.96S
FORT DRUM      NOT AVBL
MASSENA        MOCLDY    64  64 100 NE5       30.01R
SARANAC LAKE   CLOUDY    61  60  97 NE3       30.03S
PLATTSBURGH    CLOUDY    64  62  93 SE8       30.04S
$$

NYZ001>004-010>016-019>021-220500-
WEST


CITY           SKY/WX    TMP DP  RH WIND       PRES   REMARKS
NIAGARA FALLS  PTCLDY    68  64  87 CALM      29.96S
BUFFALO        PTCLDY    71  67  87 SW7       29.97S
DUNKIRK        CLEAR     66  63  90 SW5       29.99S
JAMESTOWN      CLOUDY    66  63  88 CALM      30.03S
WELLSVILLE     CLEAR     65  62  90 W3        30.06S
ROCHESTER      CLOUDY    69  66  90 CALM      29.98R
PENN YAN       CLOUDY    68  66  93 CALM      30.00S
$$

             KEY
       WCI = WIND CHILL INDEX
       VSB = VISIBILITY
       HX  = HEAT INDEX
$$


USA.gov is the U.S. government's official web portal to all federal, state and local government web resources and services.